| time (UTC) | temp F | wind direction | speed MPH | gust MPH | rain 1hr in | rain 24hr in | rain mn in | humidity % | barometer mb |
| 20260507093855 | 69 | 45 | 2.0 | 2.0 | 0.00 | 0.00 | 0.00 | 7 | 1009.0 |
| 20260507093300 | 68 | 0.0 | 1.0 | 0.00 | 0.00 | 0.00 | 7 | 1009.0 | |
| 20260507092704 | 67 | 0.0 | 2.0 | 0.00 | 0.00 | 0.00 | 7 | 1009.0 | |
| 20260507092107 | 67 | 45 | 1.0 | 1.0 | 0.00 | 0.00 | 0.00 | 7 | 1009.0 |
| 20260507091513 | 67 | 0 | 1.0 | 1.0 | 0.00 | 0.00 | 0.00 | 7 | 1009.0 |
| 20260507090917 | 66 | 0 | 1.0 | 3.0 | 0.00 | 0.00 | 0.00 | 7 | 1009.0 |
| 20260507090322 | 66 | 45 | 1.0 | 2.0 | 0.00 | 0.00 | 0.00 | 7 | 1009.0 |
| 20260507085726 | 66 | 45 | 3.0 | 3.0 | 0.00 | 0.00 | 0.00 | 7 | 1009.0 |
| 20260507085131 | 65 | 45 | 3.0 | 5.0 | 0.00 | 0.00 | 0.00 | 7 | 1009.0 |
| 20260507084536 | 65 | 45 | 4.0 | 4.0 | 0.00 | 0.00 | 0.00 | 7 | 1009.0 |
| 20260507083941 | 65 | 45 | 4.0 | 4.0 | 0.00 | 0.00 | 0.00 | 7 | 1009.0 |
| 20260507083346 | 65 | 45 | 4.0 | 4.0 | 0.00 | 0.00 | 0.00 | 8 | 1009.0 |
| 20260507082751 | 64 | 45 | 2.0 | 2.0 | 0.00 | 0.00 | 0.00 | 8 | 1009.0 |
| 20260507082152 | 64 | 45 | 1.0 | 2.0 | 0.00 | 0.00 | 0.00 | 8 | 1009.0 |
| 20260507081556 | 63 | 180 | 0.0 | 1.0 | 0.00 | 0.00 | 0.00 | 8 | 1009.0 |
| 20260507081001 | 62 | 45 | 1.0 | 2.0 | 0.00 | 0.00 | 0.00 | 8 | 1009.0 |
| 20260507080402 | 62 | 0 | 3.0 | 3.0 | 0.00 | 0.00 | 0.00 | 9 | 1009.0 |
| 20260507075807 | 62 | 0 | 3.0 | 3.0 | 0.00 | 0.00 | 0.00 | 9 | 1009.0 |
| 20260507075212 | 62 | 0 | 2.0 | 3.0 | 0.00 | 0.00 | 0.00 | 8 | 1009.0 |
| 20260507074617 | 62 | 315 | 2.0 | 3.0 | 0.00 | 0.00 | 0.00 | 9 | 1009.0 |
| 20260507074021 | 62 | 0 | 3.0 | 4.0 | 0.00 | 0.00 | 0.00 | 9 | 1009.0 |
| 20260507073426 | 62 | 0 | 3.0 | 4.0 | 0.00 | 0.00 | 0.00 | 8 | 1009.0 |
| 20260507072830 | 62 | 0 | 4.0 | 4.0 | 0.00 | 0.00 | 0.00 | 8 | 1009.0 |
| 20260507072235 | 62 | 23 | 0.0 | 1.0 | 0.00 | 0.00 | 0.00 | 8 | 1009.0 |
| 20260507071640 | 62 | 315 | 0.0 | 3.0 | 0.00 | 0.00 | 0.00 | 8 | 1009.0 |
| 20260507071044 | 62 | 0 | 3.0 | 4.0 | 0.00 | 0.00 | 0.00 | 8 | 1008.0 |
| 20260507070450 | 62 | 0 | 3.0 | 4.0 | 0.00 | 0.00 | 0.00 | 8 | 1008.0 |
| 20260507065854 | 62 | 0 | 2.0 | 2.0 | 0.00 | 0.00 | 0.00 | 9 | 1008.0 |
| 20260507065259 | 62 | 180 | 0.0 | 0.0 | 0.00 | 0.00 | 0.00 | 8 | 1008.0 |
| 20260507064704 | 62 | 270 | 1.0 | 2.0 | 0.00 | 0.00 | 0.00 | 8 | 1008.0 |
| 20260507064105 | 62 | 0 | 1.0 | 4.0 | 0.00 | 0.00 | 0.00 | 8 | 1008.0 |
| 20260507063510 | 62 | 0 | 4.0 | 4.0 | 0.00 | 0.00 | 0.00 | 9 | 1008.0 |
| 20260507062912 | 62 | 135 | 2.0 | 2.0 | 0.00 | 0.00 | 0.00 | 9 | 1008.0 |
| 20260507062313 | 62 | 180 | 0.0 | 0.0 | 0.00 | 0.00 | 0.00 | 8 | 1008.0 |
| 20260507061714 | 62 | 225 | 0.0 | 0.0 | 0.00 | 0.00 | 0.00 | 8 | 1008.0 |
| 20260507061119 | 62 | 225 | 0.0 | 2.0 | 0.00 | 0.00 | 0.00 | 8 | 1008.0 |
| 20260507060524 | 62 | 135 | 2.0 | 2.0 | 0.00 | 0.00 | 0.00 | 8 | 1008.0 |
| 20260507055929 | 62 | 135 | 2.0 | 2.0 | 0.00 | 0.00 | 0.00 | 8 | 1008.0 |
| 20260507055334 | 62 | 135 | 2.0 | 2.0 | 0.00 | 0.00 | 0.00 | 8 | 1008.0 |
| 20260507054738 | 62 | 135 | 1.0 | 2.0 | 0.00 | 0.00 | 0.00 | 8 | 1008.0 |
| 20260507054143 | 62 | 45 | 0.0 | 3.0 | 0.00 | 0.00 | 0.00 | 8 | 1008.0 |
| 20260507053548 | 62 | 0 | 2.0 | 2.0 | 0.00 | 0.00 | 0.00 | 8 | 1008.0 |
| 20260507052952 | 62 | 270 | 0.0 | 2.0 | 0.00 | 0.00 | 0.00 | 8 | 1008.0 |
| 20260507052357 | 62 | 338 | 1.0 | 1.0 | 0.00 | 0.00 | 0.00 | 8 | 1008.0 |
| 20260507051802 | 62 | 45 | 0.0 | 0.0 | 0.00 | 0.00 | 0.00 | 8 | 1008.0 |
| 20260507051207 | 62 | 45 | 0.0 | 1.0 | 0.00 | 0.00 | 0.00 | 8 | 1008.0 |
| 20260507050611 | 62 | 0 | 2.0 | 3.0 | 0.00 | 0.00 | 0.00 | 8 | 1007.0 |
| 20260507050016 | 62 | 0 | 2.0 | 2.0 | 0.00 | 0.00 | 0.00 | 8 | 1007.0 |
| 20260507045421 | 62 | 45 | 0.0 | 0.0 | 0.00 | 0.00 | 0.00 | 8 | 1007.0 |
| 20260507044825 | 62 | 45 | 1.0 | 2.0 | 0.00 | 0.00 | 0.00 | 8 | 1007.0 |
| 20260507043717 | 61 | 0 | 2.0 | 3.0 | 0.00 | 0.00 | 0.00 | 8 | 1007.0 |
| 20260507043121 | 61 | 0 | 1.0 | 4.0 | 0.00 | 0.00 | 0.00 | 8 | 1007.0 |
| 20260507042523 | 61 | 45 | 3.0 | 3.0 | 0.00 | 0.00 | 0.00 | 8 | 1007.0 |
| 20260507041928 | 61 | 135 | 0.0 | 1.0 | 0.00 | 0.00 | 0.00 | 8 | 1007.0 |
| 20260507041329 | 61 | 45 | 0.0 | 3.0 | 0.00 | 0.00 | 0.00 | 8 | 1007.0 |
| 20260507040734 | 61 | 45 | 2.0 | 3.0 | 0.00 | 0.00 | 0.00 | 8 | 1007.0 |
| 20260507040135 | 61 | 315 | 1.0 | 1.0 | 0.00 | 0.00 | 0.00 | 8 | 1007.0 |
| 20260507035539 | 61 | 0 | 2.0 | 5.0 | 0.00 | 0.00 | 0.00 | 8 | 1007.0 |
| 20260507034944 | 61 | 45 | 4.0 | 4.0 | 0.00 | 0.00 | 0.00 | 8 | 1007.0 |
| 20260507034349 | 61 | 270 | 0.0 | 3.0 | 0.00 | 0.00 | 0.00 | 8 | 1007.0 |
| 20260507033754 | 61 | 0 | 4.0 | 4.0 | 0.00 | 0.00 | 0.00 | 8 | 1007.0 |
| 20260507032645 | 61 | 293 | 0.0 | 2.0 | 0.00 | 0.00 | 0.00 | 8 | 1007.0 |
| 20260507032050 | 61 | 270 | 0.0 | 0.0 | 0.00 | 0.00 | 0.00 | 8 | 1007.0 |
| 20260507031455 | 61 | 45 | 0.0 | 1.0 | 0.00 | 0.00 | 0.00 | 8 | 1007.0 |
| 20260507030859 | 61 | 315 | 0.0 | 0.0 | 0.00 | 0.00 | 0.00 | 8 | 1007.0 |
| 20260507030303 | 61 | 180 | 0.0 | 0.0 | 0.00 | 0.00 | 0.00 | 8 | 1007.0 |
| 20260507025708 | 61 | 180 | 0.0 | 2.0 | 0.00 | 0.00 | 0.00 | 8 | 1007.0 |
| 20260507024559 | 61 | 180 | 0.0 | 0.0 | 0.00 | 0.00 | 0.00 | 8 | 1007.0 |
| 20260507024001 | 61 | 180 | 0.0 | 0.0 | 0.00 | 0.00 | 0.00 | 8 | 1007.0 |
| 20260507023405 | 61 | 180 | 0.0 | 2.0 | 0.00 | 0.00 | 0.00 | 8 | 1007.0 |
| 20260507022810 | 61 | 180 | 0.0 | 0.0 | 0.00 | 0.00 | 0.00 | 8 | 1007.0 |
| 20260507022215 | 62 | 225 | 0.0 | 1.0 | 0.00 | 0.00 | 0.00 | 8 | 1007.0 |
| 20260507021620 | 62 | 315 | 0.0 | 0.0 | 0.00 | 0.00 | 0.00 | 7 | 1006.0 |
| 20260507021024 | 62 | 180 | 0.0 | 0.0 | 0.00 | 0.00 | 0.00 | 7 | 1006.0 |
| 20260507020429 | 62 | 180 | 0.0 | 0.0 | 0.00 | 0.00 | 0.00 | 7 | 1006.0 |
| 20260507015833 | 62 | 180 | 0.0 | 0.0 | 0.00 | 0.00 | 0.00 | 7 | 1006.0 |
| 20260507015238 | 62 | 180 | 0.0 | 0.0 | 0.00 | 0.00 | 0.00 | 7 | 1006.0 |
| 20260507014643 | 63 | 135 | 0.0 | 1.0 | 0.00 | 0.00 | 0.00 | 7 | 1006.0 |
| 20260507014047 | 63 | 180 | 0.0 | 0.0 | 0.00 | 0.00 | 0.00 | 7 | 1006.0 |
| 20260507013452 | 63 | 180 | 0.0 | 0.0 | 0.00 | 0.00 | 0.00 | 7 | 1006.0 |
| 20260507012344 | 63 | 180 | 0.0 | 2.0 | 0.00 | 0.00 | 0.00 | 7 | 1006.0 |
| 20260507011749 | 63 | 135 | 0.0 | 2.0 | 0.00 | 0.00 | 0.00 | 7 | 1006.0 |
| 20260507011150 | 63 | 135 | 2.0 | 2.0 | 0.00 | 0.00 | 0.00 | 7 | 1006.0 |
| 20260507010555 | 63 | 45 | 1.0 | 2.0 | 0.00 | 0.00 | 0.00 | 7 | 1006.0 |
| 20260507010000 | 63 | 45 | 2.0 | 2.0 | 0.00 | 0.00 | 0.00 | 7 | 1006.0 |
| 20260507005401 | 63 | 0.0 | 2.0 | 0.00 | 0.00 | 0.00 | 7 | 1006.0 | |
| 20260507004806 | 63 | 135 | 0.0 | 4.0 | 0.00 | 0.00 | 0.00 | 7 | 1006.0 |
| 20260507004212 | 63 | 45 | 4.0 | 4.0 | 0.00 | 0.00 | 0.00 | 7 | 1007.0 |
| 20260507003616 | 63 | 45 | 0.0 | 0.0 | 0.00 | 0.00 | 0.00 | 7 | 1006.0 |
| 20260507003021 | 63 | 0.0 | 0.0 | 0.00 | 0.00 | 0.00 | 7 | 1006.0 | |
| 20260507002426 | 63 | 135 | 1.0 | 2.0 | 0.00 | 0.00 | 0.00 | 7 | 1006.0 |
| 20260507001831 | 63 | 180 | 0.0 | 0.0 | 0.00 | 0.00 | 0.00 | 7 | 1006.0 |
| 20260507001232 | 63 | 225 | 0.0 | 2.0 | 0.00 | 0.00 | 0.00 | 7 | 1006.0 |
| 20260507000637 | 64 | 180 | 0.0 | 1.0 | 0.00 | 0.00 | 0.00 | 7 | 1006.0 |
| 20260507000042 | 64 | 135 | 0.0 | 2.0 | 0.00 | 0.00 | 0.00 | 7 | 1006.0 |
| 20260506235447 | 64 | 135 | 0.0 | 2.0 | 0.00 | 0.00 | 0.00 | 7 | 1006.0 |
| 20260506234338 | 63 | 180 | 0.0 | 1.0 | 0.00 | 0.00 | 0.00 | 7 | 1006.0 |
| 20260506233743 | 64 | 1.0 | 3.0 | 0.00 | 0.00 | 0.00 | 7 | 1006.0 | |
| 20260506233147 | 64 | 135 | 0.0 | 1.0 | 0.00 | 0.00 | 0.00 | 7 | 1006.0 |
| 20260506232552 | 64 | 0 | 0.0 | 2.0 | 0.00 | 0.00 | 0.00 | 7 | 1006.0 |
| 20260506231957 | 64 | 45 | 2.0 | 2.0 | 0.00 | 0.00 | 0.00 | 7 | 1006.0 |
| 20260506231402 | 64 | 45 | 0.0 | 0.0 | 0.00 | 0.00 | 0.00 | 7 | 1006.0 |
| 20260506230803 | 64 | 135 | 0.0 | 0.0 | 0.00 | 0.00 | 0.00 | 7 | 1006.0 |
| 20260506230205 | 64 | 135 | 0.0 | 1.0 | 0.00 | 0.00 | 0.00 | 7 | 1006.0 |
| 20260506225610 | 64 | 180 | 0.0 | 0.0 | 0.00 | 0.00 | 0.00 | 7 | 1006.0 |
| 20260506225014 | 64 | 180 | 0.0 | 1.0 | 0.00 | 0.00 | 0.00 | 7 | 1006.0 |
| 20260506224418 | 64 | 180 | 0.0 | 1.0 | 0.00 | 0.00 | 0.00 | 7 | 1006.0 |
| 20260506223823 | 64 | 45 | 2.0 | 3.0 | 0.00 | 0.00 | 0.00 | 7 | 1006.0 |
| 20260506223227 | 64 | 2.0 | 2.0 | 0.00 | 0.00 | 0.00 | 7 | 1006.0 | |
| 20260506222632 | 64 | 225 | 0.0 | 0.0 | 0.00 | 0.00 | 0.00 | 7 | 1006.0 |
| 20260506222033 | 65 | 270 | 0.0 | 0.0 | 0.00 | 0.00 | 0.00 | 7 | 1006.0 |
| 20260506221438 | 65 | 0.0 | 0.0 | 0.00 | 0.00 | 0.00 | 6 | 1006.0 | |
| 20260506220843 | 65 | 180 | 0.0 | 0.0 | 0.00 | 0.00 | 0.00 | 7 | 1006.0 |
| 20260506220247 | 65 | 0.0 | 1.0 | 0.00 | 0.00 | 0.00 | 7 | 1006.0 | |
| 20260506215652 | 65 | 45 | 1.0 | 1.0 | 0.00 | 0.00 | 0.00 | 7 | 1006.0 |
| 20260506215053 | 65 | 45 | 3.0 | 3.0 | 0.00 | 0.00 | 0.00 | 7 | 1006.0 |
| 20260506214458 | 66 | 315 | 0.0 | 0.0 | 0.00 | 0.00 | 0.00 | 7 | 1006.0 |
| 20260506213902 | 66 | 0 | 0.0 | 0.0 | 0.00 | 0.00 | 0.00 | 6 | 1006.0 |
| 20260506213307 | 66 | 180 | 0.0 | 0.0 | 0.00 | 0.00 | 0.00 | 6 | 1006.0 |
| 20260506212712 | 66 | 113 | 0.0 | 0.0 | 0.00 | 0.00 | 0.00 | 6 | 1006.0 |
| 20260506212116 | 66 | 0.0 | 0.0 | 0.00 | 0.00 | 0.00 | 6 | 1006.0 | |
| 20260506211521 | 66 | 0.0 | 2.0 | 0.00 | 0.00 | 0.00 | 6 | 1006.0 | |
| 20260506210926 | 66 | 135 | 2.0 | 4.0 | 0.00 | 0.00 | 0.00 | 6 | 1006.0 |
| 20260506210330 | 66 | 135 | 4.0 | 4.0 | 0.00 | 0.00 | 0.00 | 6 | 1006.0 |
| 20260506205735 | 67 | 135 | 4.0 | 4.0 | 0.00 | 0.00 | 0.00 | 6 | 1006.0 |
| 20260506205140 | 67 | 135 | 4.0 | 4.0 | 0.00 | 0.00 | 0.00 | 6 | 1006.0 |
| 20260506204544 | 67 | 135 | 3.0 | 4.0 | 0.00 | 0.00 | 0.00 | 6 | 1006.0 |
| 20260506203946 | 67 | 135 | 3.0 | 3.0 | 0.00 | 0.00 | 0.00 | 6 | 1005.0 |
| 20260506203350 | 67 | 135 | 1.0 | 2.0 | 0.00 | 0.00 | 0.00 | 6 | 1005.0 |
| 20260506202755 | 67 | 180 | 1.0 | 3.0 | 0.00 | 0.00 | 0.00 | 6 | 1005.0 |
| 20260506202156 | 67 | 135 | 2.0 | 5.0 | 0.00 | 0.00 | 0.00 | 6 | 1005.0 |
| 20260506201601 | 67 | 4.0 | 6.0 | 0.00 | 0.00 | 0.00 | 6 | 1005.0 | |
| 20260506201006 | 68 | 135 | 7.0 | 7.0 | 0.00 | 0.00 | 0.00 | 6 | 1005.0 |
| 20260506200411 | 68 | 135 | 5.0 | 6.0 | 0.00 | 0.00 | 0.00 | 6 | 1005.0 |
| 20260506195816 | 68 | 180 | 7.0 | 10.0 | 0.00 | 0.00 | 0.00 | 6 | 1005.0 |
| 20260506195220 | 68 | 135 | 10.0 | 11.0 | 0.00 | 0.00 | 0.00 | 6 | 1005.0 |
| 20260506194625 | 68 | 158 | 5.0 | 5.0 | 0.00 | 0.00 | 0.00 | 6 | 1005.0 |
| 20260506194026 | 68 | 180 | 3.0 | 4.0 | 0.00 | 0.00 | 0.00 | 6 | 1004.0 |
| 20260506193431 | 68 | 135 | 3.0 | 5.0 | 0.00 | 0.00 | 0.00 | 6 | 1004.0 |
| 20260506192836 | 69 | 180 | 6.0 | 6.0 | 0.00 | 0.00 | 0.00 | 6 | 1004.0 |
| 20260506192241 | 69 | 225 | 0.0 | 0.0 | 0.00 | 0.00 | 0.00 | 5 | 1004.0 |
| 20260506191646 | 69 | 203 | 1.0 | 1.0 | 0.00 | 0.00 | 0.00 | 5 | 1004.0 |
| 20260506191050 | 68 | 225 | 1.0 | 2.0 | 0.00 | 0.00 | 0.00 | 5 | 1004.0 |
| 20260506190455 | 69 | 225 | 1.0 | 3.0 | 0.00 | 0.00 | 0.00 | 5 | 1004.0 |
| 20260506185900 | 69 | 225 | 2.0 | 4.0 | 0.00 | 0.00 | 0.00 | 6 | 1004.0 |
| 20260506185306 | 70 | 225 | 0.0 | 3.0 | 0.00 | 0.00 | 0.00 | 5 | 1004.0 |
| 20260506184709 | 70 | 270 | 0.0 | 5.0 | 0.00 | 0.00 | 0.00 | 5 | 1004.0 |
| 20260506184114 | 71 | 225 | 1.0 | 1.0 | 0.00 | 0.00 | 0.00 | 5 | 1004.0 |
| 20260506183519 | 72 | 135 | 0.0 | 2.0 | 0.00 | 0.00 | 0.00 | 5 | 1004.0 |
| 20260506182924 | 72 | 135 | 1.0 | 2.0 | 0.00 | 0.00 | 0.00 | 5 | 1003.0 |
| 20260506182329 | 73 | 270 | 2.0 | 2.0 | 0.00 | 0.00 | 0.00 | 5 | 1003.0 |
| 20260506181734 | 74 | 270 | 2.0 | 2.0 | 0.00 | 0.00 | 0.00 | 5 | 1003.0 |
| 20260506181139 | 74 | 315 | 2.0 | 2.0 | 0.00 | 0.00 | 0.00 | 5 | 1003.0 |
| 20260506180543 | 75 | 315 | 2.0 | 3.0 | 0.00 | 0.00 | 0.00 | 5 | 1003.0 |
| 20260506175948 | 76 | 0 | 4.0 | 4.0 | 0.00 | 0.00 | 0.00 | 5 | 1003.0 |
| 20260506175352 | 76 | 0 | 2.0 | 3.0 | 0.00 | 0.00 | 0.00 | 4 | 1003.0 |
| 20260506174757 | 77 | 270 | 1.0 | 1.0 | 0.00 | 0.00 | 0.00 | 4 | 1003.0 |
| 20260506174202 | 78 | 225 | 1.0 | 1.0 | 0.00 | 0.00 | 0.00 | 4 | 1003.0 |
| 20260506173606 | 79 | 225 | 1.0 | 2.0 | 0.00 | 0.00 | 0.00 | 4 | 1003.0 |
| 20260506173011 | 80 | 225 | 2.0 | 2.0 | 0.00 | 0.00 | 0.00 | 4 | 1003.0 |
| 20260506172412 | 80 | 225 | 0.0 | 1.0 | 0.00 | 0.00 | 0.00 | 4 | 1003.0 |
| 20260506171813 | 80 | 225 | 0.0 | 1.0 | 0.00 | 0.00 | 0.00 | 4 | 1002.0 |
| 20260506171215 | 79 | 180 | 2.0 | 2.0 | 0.00 | 0.00 | 0.00 | 4 | 1002.0 |
| 20260506170619 | 78 | 225 | 1.0 | 2.0 | 0.00 | 0.00 | 0.00 | 4 | 1002.0 |
| 20260506170024 | 77 | 225 | 2.0 | 3.0 | 0.00 | 0.00 | 0.00 | 4 | 1002.0 |
| 20260506165429 | 76 | 225 | 4.0 | 6.0 | 0.00 | 0.00 | 0.00 | 4 | 1002.0 |
| 20260506164833 | 76 | 225 | 3.0 | 5.0 | 0.00 | 0.00 | 0.00 | 4 | 1002.0 |
| 20260506164238 | 75 | 225 | 5.0 | 6.0 | 0.00 | 0.00 | 0.00 | 4 | 1002.0 |
| 20260506163644 | 75 | 180 | 6.0 | 6.0 | 0.00 | 0.00 | 0.00 | 4 | 1001.0 |
| 20260506163047 | 75 | 225 | 4.0 | 5.0 | 0.00 | 0.00 | 0.00 | 4 | 1001.0 |
| 20260506162452 | 75 | 225 | 4.0 | 6.0 | 0.00 | 0.00 | 0.00 | 4 | 1001.0 |
| 20260506161853 | 75 | 225 | 4.0 | 5.0 | 0.00 | 0.00 | 0.00 | 4 | 1001.0 |
| 20260506161258 | 74 | 225 | 3.0 | 5.0 | 0.00 | 0.00 | 0.00 | 5 | 1001.0 |
| 20260506160703 | 74 | 180 | 4.0 | 6.0 | 0.00 | 0.00 | 0.00 | 4 | 1001.0 |
| 20260506160108 | 74 | 225 | 5.0 | 6.0 | 0.00 | 0.00 | 0.00 | 4 | 1001.0 |
| 20260506155512 | 74 | 180 | 4.0 | 8.0 | 0.00 | 0.00 | 0.00 | 5 | 1001.0 |
| 20260506154917 | 73 | 180 | 4.0 | 6.0 | 0.00 | 0.00 | 0.00 | 5 | 1001.0 |
| 20260506154321 | 73 | 225 | 5.0 | 6.0 | 0.00 | 0.00 | 0.00 | 5 | 1001.0 |
| 20260506153726 | 74 | 180 | 6.0 | 6.0 | 0.00 | 0.00 | 0.00 | 5 | 1001.0 |
| 20260506153131 | 74 | 225 | 6.0 | 6.0 | 0.00 | 0.00 | 0.00 | 5 | 1001.0 |
| 20260506152535 | 74 | 225 | 5.0 | 6.0 | 0.00 | 0.00 | 0.00 | 5 | 1001.0 |
| 20260506151937 | 74 | 225 | 6.0 | 8.0 | 0.00 | 0.00 | 0.00 | 5 | 1001.0 |
| 20260506151341 | 75 | 225 | 2.0 | 5.0 | 0.00 | 0.00 | 0.00 | 5 | 1001.0 |
| 20260506150746 | 75 | 225 | 2.0 | 7.0 | 0.00 | 0.00 | 0.00 | 5 | 1001.0 |
| 20260506150151 | 75 | 225 | 5.0 | 5.0 | 0.00 | 0.00 | 0.00 | 5 | 1001.0 |
| 20260506145555 | 75 | 225 | 5.0 | 5.0 | 0.00 | 0.00 | 0.00 | 5 | 1001.0 |
| 20260506145000 | 75 | 225 | 5.0 | 5.0 | 0.00 | 0.00 | 0.00 | 4 | 1001.0 |
| 20260506144401 | 75 | 135 | 5.0 | 7.0 | 0.00 | 0.00 | 0.00 | 5 | 1001.0 |
| 20260506143806 | 76 | 180 | 4.0 | 6.0 | 0.00 | 0.00 | 0.00 | 5 | 1002.0 |
| 20260506143210 | 76 | 180 | 3.0 | 5.0 | 0.00 | 0.00 | 0.00 | 5 | 1002.0 |
| 20260506142615 | 76 | 225 | 4.0 | 5.0 | 0.00 | 0.00 | 0.00 | 5 | 1002.0 |
| 20260506142019 | 76 | 225 | 4.0 | 7.0 | 0.00 | 0.00 | 0.00 | 5 | 1002.0 |
| 20260506141424 | 76 | 225 | 5.0 | 5.0 | 0.00 | 0.00 | 0.00 | 5 | 1002.0 |
| 20260506140828 | 76 | 225 | 3.0 | 5.0 | 0.00 | 0.00 | 0.00 | 5 | 1002.0 |
| 20260506140230 | 76 | 225 | 3.0 | 4.0 | 0.00 | 0.00 | 0.00 | 5 | 1002.0 |
| 20260506135635 | 76 | 225 | 4.0 | 5.0 | 0.00 | 0.00 | 0.00 | 5 | 1002.0 |
| 20260506135036 | 76 | 225 | 3.0 | 6.0 | 0.00 | 0.00 | 0.00 | 5 | 1002.0 |
| 20260506134437 | 76 | 225 | 5.0 | 5.0 | 0.00 | 0.00 | 0.00 | 5 | 1002.0 |
| 20260506133842 | 76 | 225 | 4.0 | 5.0 | 0.00 | 0.00 | 0.00 | 5 | 1002.0 |
| 20260506133247 | 76 | 180 | 4.0 | 5.0 | 0.00 | 0.00 | 0.00 | 5 | 1002.0 |
| 20260506132651 | 76 | 225 | 5.0 | 7.0 | 0.00 | 0.00 | 0.00 | 5 | 1002.0 |
| 20260506132053 | 76 | 225 | 4.0 | 4.0 | 0.00 | 0.00 | 0.00 | 5 | 1002.0 |
| 20260506131458 | 76 | 225 | 4.0 | 5.0 | 0.00 | 0.00 | 0.00 | 5 | 1002.0 |
| 20260506130902 | 76 | 225 | 5.0 | 6.0 | 0.00 | 0.00 | 0.00 | 5 | 1002.0 |
| 20260506130307 | 76 | 180 | 3.0 | 6.0 | 0.00 | 0.00 | 0.00 | 5 | 1002.0 |
| 20260506125712 | 75 | 180 | 12.0 | 12.0 | 0.00 | 0.00 | 0.00 | 5 | 1002.0 |
| 20260506125113 | 75 | 225 | 2.0 | 11.0 | 0.00 | 0.00 | 0.00 | 5 | 1002.0 |
| 20260506124518 | 75 | 180 | 8.0 | 10.0 | 0.00 | 0.00 | 0.00 | 5 | 1002.0 |
| 20260506123923 | 76 | 180 | 5.0 | 6.0 | 0.00 | 0.00 | 0.00 | 5 | 1002.0 |
| 20260506123328 | 75 | 203 | 5.0 | 8.0 | 0.00 | 0.00 | 0.00 | 5 | 1002.0 |
| 20260506122732 | 75 | 180 | 5.0 | 8.0 | 0.00 | 0.00 | 0.00 | 5 | 1002.0 |
| 20260506122137 | 74 | 180 | 4.0 | 9.0 | 0.00 | 0.00 | 0.00 | 6 | 1002.0 |
| 20260506121542 | 74 | 180 | 8.0 | 10.0 | 0.00 | 0.00 | 0.00 | 6 | 1002.0 |
| 20260506120947 | 74 | 225 | 7.0 | 10.0 | 0.00 | 0.00 | 0.00 | 5 | 1002.0 |
| 20260506120352 | 74 | 180 | 9.0 | 11.0 | 0.00 | 0.00 | 0.00 | 6 | 1002.0 |
| 20260506115753 | 75 | 180 | 8.0 | 8.0 | 0.00 | 0.00 | 0.00 | 6 | 1002.0 |
| 20260506115158 | 75 | 225 | 5.0 | 6.0 | 0.00 | 0.00 | 0.00 | 6 | 1002.0 |
| 20260506114603 | 74 | 225 | 3.0 | 4.0 | 0.00 | 0.00 | 0.00 | 7 | 1002.0 |
| 20260506114008 | 74 | 7.0 | 7.0 | 0.00 | 0.00 | 0.00 | 7 | 1002.0 | |
| 20260506112859 | 73 | 3.0 | 4.0 | 0.00 | 0.00 | 0.00 | 8 | 1002.0 | |
| 20260506112306 | 72 | 135 | 4.0 | 4.0 | 0.00 | 0.00 | 0.00 | 8 | 1002.0 |
| 20260506111709 | 72 | 135 | 3.0 | 5.0 | 0.00 | 0.00 | 0.00 | 8 | 1003.0 |
| 20260506111114 | 71 | 45 | 4.0 | 4.0 | 0.00 | 0.00 | 0.00 | 8 | 1003.0 |
| 20260506110518 | 71 | 3.0 | 5.0 | 0.00 | 0.00 | 0.00 | 8 | 1003.0 | |
| 20260506105922 | 70 | 4.0 | 5.0 | 0.00 | 0.00 | 0.00 | 8 | 1003.0 | |
| 20260506105327 | 70 | 0 | 4.0 | 4.0 | 0.00 | 0.00 | 0.00 | 8 | 1003.0 |
| 20260506104731 | 70 | 135 | 6.0 | 6.0 | 0.00 | 0.00 | 0.00 | 8 | 1003.0 |
| 20260506104136 | 70 | 135 | 4.0 | 7.0 | 0.00 | 0.00 | 0.00 | 8 | 1003.0 |
| 20260506103540 | 70 | 135 | 6.0 | 6.0 | 0.00 | 0.00 | 0.00 | 8 | 1003.0 |
| 20260506102942 | 70 | 113 | 3.0 | 6.0 | 0.00 | 0.00 | 0.00 | 8 | 1003.0 |
| 20260506102347 | 70 | 135 | 4.0 | 6.0 | 0.00 | 0.00 | 0.00 | 8 | 1003.0 |
| 20260506101752 | 70 | 135 | 6.0 | 7.0 | 0.00 | 0.00 | 0.00 | 8 | 1003.0 |
| 20260506101156 | 70 | 180 | 3.0 | 6.0 | 0.00 | 0.00 | 0.00 | 8 | 1003.0 |
| 20260506100601 | 70 | 3.0 | 4.0 | 0.00 | 0.00 | 0.00 | 8 | 1003.0 | |
| 20260506100006 | 70 | 45 | 3.0 | 4.0 | 0.00 | 0.00 | 0.00 | 9 | 1003.0 |
| 20260506095411 | 70 | 135 | 5.0 | 5.0 | 0.00 | 0.00 | 0.00 | 9 | 1003.0 |
| 20260506094812 | 69 | 135 | 5.0 | 6.0 | 0.00 | 0.00 | 0.00 | 9 | 1003.0 |